When you browse on this site, cookies collect data to enhance your experience and personalize the content and advertising you see.
Visit our Privacy Policy to learn more. By continuing to use the site, you agree to this use of cookies and data.
  • In Romania
  • List of Countries
  • For 7 days
  • Water Temperature
  • Weather Map
  • Weather Widgets
  • user-avatar
    Login

    Hourly Weather Gwatemala

    Today, 7 December, Saturday

    Time Temperature Precipitation Wind Pressure Humidity
    00:00 +16°C° 0 mm 2 mps 639 mmHg 96%
    01:00 +16°C° 0 mm 2 mps 639 mmHg 95%
    02:00 +16°C° 0 mm 2 mps 638 mmHg 94%
    03:00 +16°C° 0 mm 2 mps 638 mmHg 93%
    04:00 +16°C° 0 mm 2 mps 638 mmHg 94%
    05:00 +15°C° 0 mm 2 mps 638 mmHg 94%
    06:00 +15°C° 0 mm 2 mps 638 mmHg 94%
    07:00 +16°C° 0 mm 2 mps 639 mmHg 88%
    08:00 +17°C° 0 mm 2 mps 640 mmHg 83%
    09:00 +19°C° 0 mm 2 mps 641 mmHg 78%
    10:00 +20°C° 0 mm 2 mps 641 mmHg 71%
    11:00 +23°C° 0 mm 2 mps 641 mmHg 65%
    12:00 +24°C° 0 mm 2 mps 641 mmHg 58%
    13:00 +24°C° 0 mm 2 mps 640 mmHg 59%
    14:00 +24°C° 0 mm 2 mps 640 mmHg 59%
    15:00 +24°C° 0 mm 2 mps 639 mmHg 60%
    16:00 +21°C° 0 mm 2 mps 639 mmHg 68%
    17:00 +19°C° 0 mm 2 mps 638 mmHg 77%
    18:00 +18°C° 0 mm 1 mps 638 mmHg 86%
    19:00 +18°C° 0 mm 1 mps 638 mmHg 88%
    20:00 +16°C° 0 mm 2 mps 639 mmHg 90%
    21:00 +16°C° 0 mm 2 mps 639 mmHg 92%
    22:00 +15°C° 0 mm 2 mps 639 mmHg 93%
    23:00 +15°C° 0 mm 2 mps 638 mmHg 93%

    Tomorrow, 8 December, Sunday

    Time Temperature Precipitation Wind Pressure Humidity
    00:00 +15°C° 0 mm 2 mps 638 mmHg 94%
    01:00 +14°C° 0 mm 2 mps 638 mmHg 94%
    02:00 +14°C° 0 mm 2 mps 637 mmHg 93%
    03:00 +14°C° 0 mm 2 mps 637 mmHg 93%
    04:00 +13°C° 0 mm 2 mps 637 mmHg 93%
    05:00 +13°C° 0 mm 2 mps 637 mmHg 92%
    06:00 +13°C° 0 mm 2 mps 637 mmHg 92%
    07:00 +15°C° 0 mm 2 mps 638 mmHg 86%
    08:00 +17°C° 0 mm 2 mps 639 mmHg 80%
    09:00 +18°C° 0 mm 2 mps 640 mmHg 74%
    10:00 +20°C° 0 mm 2 mps 640 mmHg 67%
    11:00 +23°C° 0 mm 2 mps 640 mmHg 61%
    12:00 +24°C° 0 mm 2 mps 640 mmHg 55%
    13:00 +24°C° 0 mm 2 mps 639 mmHg 55%
    14:00 +24°C° 0 mm 2 mps 639 mmHg 56%
    15:00 +24°C° 0 mm 1 mps 638 mmHg 56%
    16:00 +22°C° 0 mm 1 mps 638 mmHg 66%
    17:00 +20°C° 0 mm 1 mps 637 mmHg 76%
    18:00 +18°C° 0 mm 1 mps 637 mmHg 86%
    19:00 +16°C° 0 mm 1 mps 637 mmHg 87%
    20:00 +16°C° 0 mm 1 mps 637 mmHg 88%
    21:00 +15°C° 0 mm 1 mps 637 mmHg 90%
    22:00 +15°C° 0 mm 1 mps 637 mmHg 91%
    23:00 +15°C° 0 mm 1 mps 637 mmHg 92%

    Day after tomorrow, 9 December, Monday

    Time Temperature Precipitation Wind Pressure Humidity
    00:00 +14°C° 0 mm 1 mps 637 mmHg 93%
    01:00 +14°C° 0 mm 1 mps 637 mmHg 94%
    02:00 +14°C° 0 mm 1 mps 636 mmHg 94%
    03:00 +14°C° 0 mm 1 mps 636 mmHg 94%
    04:00 +14°C° 0 mm 1 mps 636 mmHg 94%
    05:00 +14°C° 0 mm 1 mps 636 mmHg 94%
    06:00 +14°C° 0 mm 1 mps 636 mmHg 94%
    07:00 +16°C° 0 mm 1 mps 637 mmHg 86%
    08:00 +19°C° 0 mm 1 mps 638 mmHg 77%
    09:00 +21°C° 0 mm 1 mps 639 mmHg 68%
    10:00 +23°C° 0 mm 1 mps 639 mmHg 62%
    11:00 +25°C° 0 mm 1 mps 639 mmHg 55%
    12:00 +26°C° 0 mm 1 mps 640 mmHg 49%
    13:00 +26°C° 0 mm 1 mps 639 mmHg 53%
    14:00 +25°C° 0 mm 1 mps 638 mmHg 56%
    15:00 +24°C° 0 mm 1 mps 638 mmHg 60%
    16:00 +22°C° 0.3 mm 1 mps 637 mmHg 71%
    17:00 +20°C° 0.3 mm 1 mps 637 mmHg 82%
    18:00 +16°C° 0.3 mm 0 mps 636 mmHg 93%
    19:00 +16°C° 0 mm 0 mps 636 mmHg 94%
    20:00 +16°C° 0 mm 1 mps 637 mmHg 94%
    21:00 +16°C° 0 mm 1 mps 637 mmHg 95%
    22:00 +16°C° 0 mm 1 mps 637 mmHg 95%
    23:00 +16°C° 0 mm 1 mps 637 mmHg 96%

    10 December, Tuesday

    Time Temperature Precipitation Wind Pressure Humidity
    00:00 +15°C° 0 mm 1 mps 637 mmHg 96%
    01:00 +16°C° 0 mm 1 mps 636 mmHg 95%
    02:00 +16°C° 0 mm 1 mps 636 mmHg 95%
    03:00 +16°C° 0 mm 1 mps 636 mmHg 94%
    04:00 +15°C° 0 mm 1 mps 636 mmHg 94%
    05:00 +15°C° 0 mm 1 mps 636 mmHg 93%
    06:00 +15°C° 0 mm 1 mps 636 mmHg 93%
    07:00 +18°C° 0 mm 1 mps 637 mmHg 86%
    08:00 +18°C° 0 mm 0 mps 638 mmHg 78%
    09:00 +21°C° 0 mm 0 mps 639 mmHg 71%
    10:00 +24°C° 0 mm 1 mps 639 mmHg 65%
    11:00 +25°C° 0 mm 1 mps 639 mmHg 59%
    12:00 +27°C° 0 mm 1 mps 639 mmHg 54%
    13:00 +25°C° 1.2 mm 1 mps 639 mmHg 61%
    14:00 +24°C° 1.2 mm 1 mps 638 mmHg 69%
    15:00 +23°C° 1.2 mm 1 mps 637 mmHg 76%
    16:00 +22°C° 0.9 mm 1 mps 637 mmHg 81%
    17:00 +18°C° 0.9 mm 0 mps 637 mmHg 87%
    18:00 +17°C° 0.9 mm 0 mps 636 mmHg 92%
    19:00 +16°C° 0.3 mm 0 mps 637 mmHg 92%
    20:00 +18°C° 0.3 mm 1 mps 637 mmHg 92%
    21:00 +18°C° 0.3 mm 1 mps 638 mmHg 92%
    22:00 +16°C° 0 mm 1 mps 637 mmHg 92%
    23:00 +16°C° 0 mm 1 mps 637 mmHg 93%

    11 December, Wednesday

    Time Temperature Precipitation Wind Pressure Humidity
    00:00 +16°C° 0 mm 1 mps 637 mmHg 94%
    01:00 +16°C° 0 mm 1 mps 637 mmHg 94%
    02:00 +15°C° 0 mm 1 mps 637 mmHg 95%
    03:00 +15°C° 0 mm 1 mps 636 mmHg 95%
    04:00 +15°C° 0 mm 1 mps 636 mmHg 95%
    05:00 +15°C° 0 mm 1 mps 637 mmHg 95%
    06:00 +15°C° 0 mm 1 mps 637 mmHg 95%
    07:00 +16°C° 0 mm 2 mps 638 mmHg 90%
    08:00 +18°C° 0 mm 2 mps 639 mmHg 86%
    09:00 +19°C° 0 mm 2 mps 640 mmHg 81%
    10:00 +21°C° 0 mm 2 mps 640 mmHg 73%
    11:00 +23°C° 0 mm 2 mps 640 mmHg 66%
    12:00 +25°C° 0 mm 2 mps 640 mmHg 59%
    13:00 +24°C° 0.3 mm 2 mps 639 mmHg 61%
    14:00 +24°C° 0.3 mm 2 mps 639 mmHg 62%
    15:00 +24°C° 0.3 mm 2 mps 638 mmHg 64%
    16:00 +21°C° 0.2 mm 2 mps 638 mmHg 72%
    17:00 +19°C° 0.2 mm 2 mps 637 mmHg 79%
    18:00 +17°C° 0.2 mm 2 mps 637 mmHg 87%
    19:00 +17°C° 0 mm 2 mps 637 mmHg 88%
    20:00 +16°C° 0 mm 2 mps 638 mmHg 90%
    21:00 +16°C° 0 mm 2 mps 638 mmHg 91%
    22:00 +16°C° 0 mm 2 mps 638 mmHg 92%
    23:00 +15°C° 0 mm 2 mps 638 mmHg 92%

    12 December, Thursday

    Time Temperature Precipitation Wind Pressure Humidity
    00:00 +15°C° 0 mm 2 mps 638 mmHg 93%
    01:00 +15°C° 0 mm 2 mps 637 mmHg 93%
    02:00 +15°C° 0 mm 2 mps 637 mmHg 92%
    03:00 +15°C° 0 mm 2 mps 637 mmHg 92%
    04:00 +15°C° 0 mm 2 mps 637 mmHg 93%
    05:00 +15°C° 0 mm 2 mps 637 mmHg 93%
    06:00 +15°C° 0 mm 2 mps 637 mmHg 94%
    07:00 +16°C° 0 mm 2 mps 638 mmHg 90%
    08:00 +18°C° 0 mm 2 mps 639 mmHg 85%
    09:00 +19°C° 0 mm 2 mps 640 mmHg 80%
    10:00 +20°C° 0 mm 3 mps 639 mmHg 76%
    11:00 +21°C° 0 mm 3 mps 639 mmHg 72%
    12:00 +22°C° 0 mm 3 mps 639 mmHg 68%
    13:00 +21°C° 0.1 mm 3 mps 639 mmHg 69%
    14:00 +21°C° 0.1 mm 2 mps 638 mmHg 70%
    15:00 +21°C° 0.1 mm 2 mps 637 mmHg 71%
    16:00 +20°C° 0.1 mm 2 mps 637 mmHg 77%
    17:00 +18°C° 0.1 mm 2 mps 637 mmHg 84%
    18:00 +18°C° 0.1 mm 1 mps 637 mmHg 91%
    19:00 +16°C° 0 mm 1 mps 637 mmHg 92%
    20:00 +16°C° 0 mm 2 mps 637 mmHg 93%
    21:00 +15°C° 0 mm 2 mps 638 mmHg 94%
    22:00 +15°C° 0 mm 2 mps 638 mmHg 94%
    23:00 +15°C° 0 mm 2 mps 637 mmHg 94%
    Show more